KD5OH Weather Reports


time (UTC)temp
F
wind
direction
speed
knots
gust
knots
rain 1hr
in
rain 24hr
in
rain mn
in
humidity
%
barometer
mb
20260506104637 52 44 0.0 1.7 0.00 0.00 0.00 45 1016.5
20260506103125 49 68 0.9 1.7 0.00 0.00 0.00 51 1016.3
20260506101633 50 73 0.0 1.7 0.00 0.00 0.00 50 1016.2
20260506100125 50 85 0.0 0.0 0.00 0.00 0.00 49 1016.1
20260506094634 51 85 0.0 0.0 0.00 0.00 0.00 47 1015.9
20260506093128 53 79 0.0 0.0 0.00 0.00 0.00 43 1015.9
20260506091636 54 83 0.0 0.0 0.00 0.00 0.00 41 1015.9
20260506090130 57 17 0.0 0.0 0.00 0.00 0.00 38 1015.7
20260506084640 59 256 0.0 1.7 0.00 0.00 0.00 35 1015.5
20260506083129 60 283 1.7 5.2 0.00 0.00 0.00 33 1015.6
20260506081643 59 270 0.0 4.3 0.00 0.00 0.00 34 1015.5
20260506080132 58 129 1.7 4.3 0.00 0.00 0.00 35 1015.5
20260506073135 56 108 0.9 2.6 0.00 0.00 0.00 35 1015.5
20260506071625 58 285 0.0 0.0 0.00 0.00 0.00 32 1015.2
20260506070200 59 283 0.9 4.3 0.00 0.00 0.00 31 1015.0
20260506061653 58 116 1.7 2.6 0.00 0.00 0.00 34 1014.5
20260506060141 58 128 0.9 1.7 0.00 0.00 0.00 35 1014.3
20260506050123 60 160 2.6 4.3 0.00 0.00 0.00 36 1014.1
20260506044633 60 163 0.9 2.6 0.00 0.00 0.00 36 1014.0
20260506043126 61 206 0.9 2.6 0.00 0.00 0.00 35 1013.8
20260506041633 61 140 0.0 0.9 0.00 0.00 0.00 37 1013.6
20260506040126 61 131 0.0 2.6 0.00 0.00 0.00 38 1013.4
20260506034657 60 112 0.0 0.0 0.00 0.00 0.00 39 1013.1
20260506033129 61 125 0.0 0.0 0.00 0.00 0.00 36 1012.9
20260506031637 61 107 0.0 0.0 0.00 0.00 0.00 37 1012.8
20260506030126 61 107 0.0 0.9 0.00 0.00 0.00 37 1012.7
20260506024701 61 107 0.0 1.7 0.00 0.00 0.00 37 1012.6
20260506023150 62 107 0.0 1.7 0.00 0.00 0.00 36 1012.5
20260506021637 65 118 0.9 0.9 0.00 0.00 0.00 32 1012.4
20260506020129 67 236 0.0 0.9 0.00 0.00 0.00 29 1012.3
20260506014638 69 168 0.9 1.7 0.00 0.00 0.00 28 1012.2
20260506013132 70 229 0.9 2.6 0.00 0.00 0.00 27 1012.1
20260506011639 70 246 0.9 4.3 0.00 0.00 0.00 27 1012.2
20260506010133 71 222 1.7 7.0 0.00 0.00 0.00 26 1012.1
20260506004622 72 237 6.1 10.4 0.00 0.00 0.00 25 1012.3
20260506003132 72 261 4.3 12.2 0.00 0.00 0.00 25 1012.1
20260506001627 72 234 7.0 11.3 0.00 0.00 0.00 24 1012.2
20260506000204 73 241 8.7 12.2 0.00 0.00 0.00 23 1012.2
20260505234659 72 209 3.5 7.8 0.00 0.00 0.00 27 1012.2
20260505233150 72 207 7.0 12.2 0.00 0.00 0.00 27 1012.2
20260505231621 72 225 6.1 10.4 0.00 0.00 0.00 28 1012.2
20260505230138 72 217 7.0 13.0 0.00 0.00 0.00 28 1012.3
20260505224628 73 239 7.0 13.9 0.00 0.00 0.00 28 1012.8
20260505223142 72 263 8.7 13.0 0.00 0.00 0.00 29 1012.9
20260505221652 72 210 7.8 14.8 0.00 0.00 0.00 29 1013.2
20260505220140 72 207 8.7 15.6 0.00 0.00 0.00 29 1013.4
20260505214655 71 248 13.0 18.2 0.00 0.00 0.00 30 1013.6
20260505213126 71 238 11.3 20.0 0.00 0.00 0.00 30 1014.0
20260505211641 71 231 9.6 19.1 0.00 0.00 0.00 30 1014.2
20260505210129 71 263 7.8 13.9 0.00 0.00 0.00 30 1014.7
20260505204639 70 237 6.1 12.2 0.00 0.00 0.00 33 1015.0
20260505203134 69 231 8.7 12.2 0.00 0.00 0.00 35 1015.5
20260505201626 68 241 7.8 15.6 0.00 0.00 0.00 35 1015.8
20260505200121 66 281 9.6 14.8 0.00 0.00 0.00 35 1015.8
20260505194631 66 234 13.0 20.9 0.00 0.00 0.00 36 1015.7
20260505193123 67 260 7.8 15.6 0.00 0.00 0.00 36 1015.5
20260505191638 67 243 9.6 17.4 0.00 0.00 0.00 34 1015.7
20260505190131 68 279 7.0 12.2 0.00 0.00 0.00 33 1015.4
20260505184624 68 232 5.2 10.4 0.00 0.00 0.00 32 1015.2
20260505183134 68 220 2.6 7.8 0.00 0.00 0.00 29 1015.2
20260505181625 69 246 4.3 7.8 0.00 0.00 0.00 28 1015.0
20260505180134 70 224 7.0 10.4 0.00 0.00 0.00 27 1015.1
20260505171623 68 168 1.7 5.2 0.00 0.00 0.00 29 1015.3
20260505170132 67 129 0.0 2.6 0.00 0.00 0.00 29 1015.2
20260505164644 67 279 1.7 7.0 0.00 0.00 0.00 31 1015.4
20260505163133 67 201 1.7 5.2 0.00 0.00 0.00 32 1015.0
20260505161625 67 208 2.6 6.1 0.00 0.00 0.00 33 1015.3
20260505160154 67 182 1.7 3.5 0.00 0.00 0.00 31 1015.3
20260505153133 66 153 0.0 2.6 0.00 0.00 0.00 32 1015.2
20260505151621 66 150 0.9 3.5 0.00 0.00 0.00 33 1015.1
20260505150134 66 222 0.0 1.7 0.00 0.00 0.00 34 1015.1
20260505140120 65 272 1.7 7.0 0.00 0.00 0.00 34 1015.2
20260505130129 63 209 0.0 0.9 0.00 0.00 0.00 34 1014.9
20260505124625 64 213 0.0 2.6 0.00 0.00 0.00 31 1014.6
20260505123138 64 248 0.0 0.9 0.00 0.00 0.00 31 1014.6
20260505121633 64 309 1.7 4.3 0.00 0.00 0.00 32 1014.5
20260505120125 63 251 0.0 0.0 0.00 0.00 0.00 33 1014.4
20260505114657 64 9 0.0 0.0 0.00 0.00 0.00 31 1014.1
20260505113132 63 297 0.0 0.0 0.00 0.00 0.00 31 1014.1
20260505111623 64 297 0.0 0.9 0.00 0.00 0.00 32 1014.2
20260505110138 64 297 0.0 0.0 0.00 0.00 0.00 32 1014.2